GW0774 Weather Reports


time (UTC)temp
C
wind
direction
speed
KPH
gust
KPH
rain 1hr
cm
rain 24hr
cm
rain mn
cm
humidity
%
barometer
mb
20260508134040 14 283 4.8 11.3 0.00 0.58 0.10 91 1001.5
20260508133540 15 242 4.8 12.9 0.00 0.58 0.10 91 1001.5
20260508133053 15 287 6.4 12.9 0.00 0.58 0.10 92 1001.5
20260508132539 15 315 4.8 11.3 0.00 0.58 0.10 92 1001.5
20260508132039 15 252 4.8 11.3 0.00 0.58 0.10 92 1001.5
20260508131548 15 249 6.4 16.1 0.00 0.58 0.10 92 1001.6
20260508131039 15 246 6.4 16.1 0.05 0.58 0.10 92 1001.5
20260508130538 15 288 6.4 16.1 0.08 0.58 0.10 91 1001.5
20260508130054 15 284 6.4 16.1 0.10 0.58 0.10 91 1001.5
20260508125539 15 300 4.8 20.9 0.13 0.58 0.10 91 1001.4
20260508125039 15 289 9.7 20.9 0.15 0.58 0.10 91 1001.4
20260508124548 15 272 11.3 20.9 0.18 0.58 0.10 92 1001.3
20260508124038 15 300 11.3 20.9 0.23 0.58 0.10 92 1001.4
20260508123539 14 254 12.9 20.9 0.25 0.58 0.10 93 1001.5
20260508123046 14 261 12.9 22.5 0.28 0.56 0.08 93 1001.6
20260508122539 14 270 14.5 41.8 0.38 0.56 0.08 93 1001.5
20260508122040 14 274 16.1 41.8 0.41 0.56 0.08 94 1001.4
20260508121600 13 269 19.3 41.8 0.41 0.56 0.08 94 1001.4
20260508121041 13 300 17.7 37.0 0.38 0.53 0.05 94 1001.6
20260508120539 13 283 17.7 29.0 0.36 0.48 0.00 94 1001.7
20260508120046 13 263 14.5 30.6 0.33 0.46 0.00 94 1001.8
20260508115543 14 264 14.5 30.6 0.33 0.46 0.46 94 1001.9
20260508115038 14 311 16.1 27.4 0.28 0.41 0.41 94 1002.0
20260508114547 14 298 14.5 35.4 0.25 0.36 0.36 93 1002.0
20260508114039 15 302 17.7 35.4 0.23 0.36 0.36 93 1002.2
20260508113539 15 349 19.3 35.4 0.20 0.33 0.33 92 1002.0
20260508113055 16 250 11.3 19.3 0.15 0.28 0.28 93 1001.9
20260508112539 16 244 9.7 12.9 0.03 0.15 0.15 92 1001.8
20260508112041 16 230 4.8 6.4 0.03 0.15 0.15 92 1001.3
20260508111546 16 181 0.0 6.4 0.03 0.15 0.15 92 1000.9
20260508111040 16 181 0.0 6.4 0.00 0.13 0.13 92 1000.8
20260508110539 16 146 0.0 3.2 0.00 0.13 0.13 91 1000.9
20260508110052 16 144 0.0 1.6 0.00 0.13 0.13 91 1001.0
20260508105539 16 144 0.0 1.6 0.00 0.10 0.10 91 1001.1
20260508105039 16 0 0.0 1.6 0.03 0.10 0.10 91 1001.4
20260508104549 16 0 0.0 1.6 0.08 0.10 0.10 90 1001.5
20260508104040 16 218 0.0 1.6 0.08 0.10 0.10 90 1001.5
20260508103539 16 0 0.0 1.6 0.10 0.10 0.10 89 1001.5
20260508103051 16 232 0.0 1.6 0.10 0.10 0.10 89 1001.4
20260508102539 16 0 0.0 1.6 0.10 0.10 0.10 88 1001.6
20260508102039 16 0 0.0 1.6 0.10 0.10 0.10 87 1001.6
20260508101546 17 0 0.0 12.9 0.10 0.10 0.10 87 1001.6
20260508101040 17 232 0.0 12.9 0.10 0.10 0.10 86 1001.8
20260508100538 17 231 3.2 14.5 0.10 0.10 0.10 86 1001.8
20260508100048 17 261 3.2 14.5 0.10 0.10 0.10 85 1001.9
20260508095541 17 15 6.4 16.1 0.10 0.10 0.10 83 1001.9
20260508095040 18 61 6.4 16.1 0.08 0.08 0.08 81 1001.9
20260508094554 18 69 1.6 12.9 0.03 0.03 0.03 80 1001.9
20260508094039 18 230 3.2 8.0 0.00 0.00 0.00 80 1001.9
20260508093539 18 268 0.0 9.7 0.00 0.00 0.00 79 1001.7
20260508093042 18 237 1.6 9.7 0.00 0.00 0.00 78 1001.8
20260508092538 18 83 3.2 16.1 0.00 0.00 0.00 77 1001.9
20260508092039 18 0 3.2 16.1 0.00 0.00 0.00 77 1001.8
20260508091555 18 256 3.2 14.5 0.00 0.00 0.00 76 1001.6
20260508091039 18 32 4.8 22.5 0.00 0.00 0.00 76 1001.9
20260508090539 18 242 8.0 25.7 0.00 0.00 0.00 76 1002.1
20260508090047 19 335 6.4 25.7 0.00 0.00 0.00 75 1002.4
20260508085538 19 329 8.0 25.7 0.00 0.00 0.00 75 1002.4
20260508085038 18 46 4.8 14.5 0.00 0.00 0.00 75 1001.9
20260508084548 18 292 3.2 11.3 0.00 0.00 0.00 76 1001.9
20260508084039 18 94 3.2 11.3 0.00 0.00 0.00 77 1001.9
20260508083538 18 287 4.8 14.5 0.00 0.00 0.00 77 1001.3
20260508083124 18 79 3.2 14.5 0.00 0.00 0.00 77 1001.2
20260508082539 18 73 1.6 16.1 0.00 0.00 0.00 77 1001.6
20260508082110 18 62 1.6 16.1 0.00 0.00 0.00 76 1001.6
20260508081548 18 57 1.6 12.9 0.00 0.00 0.00 75 1001.9
20260508081038 18 265 3.2 8.0 0.00 0.00 0.00 75 1002.0
20260508080538 18 186 1.6 14.5 0.00 0.00 0.00 75 1002.0
20260508080054 18 71 3.2 14.5 0.00 0.00 0.00 75 1002.1
20260508075535 18 70 3.2 11.3 0.00 0.00 0.00 76 1002.5
20260508075038 18 138 1.6 9.7 0.00 0.00 0.00 75 1002.7
20260508074548 18 234 3.2 14.5 0.00 0.00 0.00 75 1002.8
20260508074035 18 244 3.2 14.5 0.00 0.00 0.00 75 1002.8
20260508073539 18 86 3.2 17.7 0.00 0.00 0.00 75 1003.0
20260508073059 18 336 3.2 17.7 0.00 0.00 0.00 76 1003.2
20260508072535 18 270 4.8 11.3 0.00 0.00 0.00 76 1003.2
20260508072035 18 102 3.2 11.3 0.00 0.00 0.00 76 1003.5
20260508071549 18 84 1.6 6.4 0.00 0.00 0.00 76 1003.5
20260508071035 18 236 1.6 4.8 0.00 0.00 0.00 75 1003.5
20260508070536 18 225 1.6 4.8 0.00 0.00 0.00 75 1003.5
20260508070046 18 71 0.0 4.8 0.00 0.00 0.00 75 1003.4
20260508065539 18 76 1.6 4.8 0.00 0.00 0.00 74 1003.4
20260508065035 18 242 1.6 8.0 0.00 0.00 0.00 73 1003.4
20260508064601 18 5 3.2 9.7 0.00 0.00 0.00 72 1003.2
20260508064039 18 0 0.0 16.1 0.00 0.00 0.00 71 1003.3
20260508063539 18 0 1.6 16.1 0.00 0.00 0.00 71 1003.4
20260508063048 18 289 1.6 17.7 0.00 0.00 0.00 71 1003.3
20260508062535 18 181 4.8 17.7 0.00 0.00 0.00 70 1003.5
20260508062035 18 221 3.2 17.7 0.00 0.00 0.00 70 1003.3
20260508061547 18 72 4.8 17.7 0.00 0.00 0.00 71 1003.3
20260508061036 18 46 3.2 14.5 0.00 0.00 0.00 71 1003.5
20260508060539 18 236 3.2 12.9 0.00 0.00 0.00 72 1003.5
20260508060046 18 85 1.6 12.9 0.00 0.00 0.00 72 1003.8
20260508055538 18 42 1.6 14.5 0.00 0.00 0.00 73 1003.9
20260508055035 18 51 4.8 17.7 0.00 0.00 0.00 73 1004.0
20260508054554 17 280 4.8 17.7 0.00 0.00 0.00 74 1004.1
20260508054038 17 92 4.8 12.9 0.00 0.00 0.00 76 1004.1
20260508053535 17 296 3.2 12.9 0.00 0.00 0.00 77 1004.3
20260508053050 17 224 3.2 12.9 0.00 0.00 0.00 78 1004.4
20260508052539 16 227 1.6 8.0 0.00 0.00 0.00 79 1004.6
20260508052038 16 0 1.6 4.8 0.00 0.00 0.00 80 1004.8
20260508051539 16 0 0.0 3.2 0.00 0.00 0.00 81 1004.7
20260508051039 16 0 0.0 3.2 0.00 0.00 0.00 83 1004.9
20260508050539 16 0 0.0 1.6 0.00 0.00 0.00 84 1004.9
20260508050052 16 0 0.0 0.0 0.00 0.00 0.00 83 1005.2
20260508045539 17 0 0.0 1.6 0.00 0.00 0.00 83 1005.2
20260508045040 17 0 0.0 1.6 0.00 0.00 0.00 83 1005.2
20260508044546 17 0 0.0 1.6 0.00 0.00 0.00 82 1005.2
20260508044041 17 0 0.0 1.6 0.00 0.00 0.00 82 1005.3
20260508043538 17 0 0.0 1.6 0.00 0.00 0.00 82 1005.4
20260508043046 17 0 0.0 1.6 0.00 0.00 0.00 81 1005.5
20260508042542 17 82 0.0 1.6 0.00 0.00 0.00 81 1005.6
20260508042038 17 82 0.0 1.6 0.00 0.00 0.00 80 1005.7
20260508041544 17 82 0.0 3.2 0.00 0.00 0.00 79 1005.7
20260508041039 17 84 0.0 3.2 0.00 0.00 0.00 79 1005.6
20260508040539 17 89 1.6 3.2 0.00 0.00 0.00 79 1005.8
20260508040043 18 88 1.6 6.4 0.00 0.00 0.00 79 1005.8
20260508035539 17 88 0.0 6.4 0.00 0.00 0.00 79 1006.0
20260508035039 17 84 1.6 4.8 0.00 0.00 0.00 79 1006.3
20260508034553 17 79 1.6 4.8 0.00 0.00 0.00 79 1006.3
20260508034038 17 84 1.6 4.8 0.00 0.00 0.00 80 1006.5
20260508033538 17 86 0.0 4.8 0.00 0.00 0.00 80 1006.7
20260508033046 17 99 0.0 3.2 0.00 0.00 0.00 80 1006.7
20260508032539 17 99 0.0 3.2 0.00 0.00 0.00 80 1006.8
20260508032042 17 98 0.0 1.6 0.00 0.00 0.00 80 1006.9
20260508031546 17 98 0.0 3.2 0.00 0.00 0.00 79 1007.0
20260508031039 18 97 0.0 3.2 0.00 0.00 0.00 78 1007.0
20260508030538 18 0 1.6 4.8 0.00 0.00 0.00 77 1007.1
20260508030056 18 88 1.6 4.8 0.00 0.00 0.00 75 1007.1
20260508025538 18 84 3.2 4.8 0.00 0.00 0.00 74 1007.1
20260508025038 18 0 0.0 3.2 0.00 0.00 0.00 74 1007.2
20260508024600 18 77 0.0 6.4 0.00 0.00 0.00 72 1007.5
20260508024039 18 0 0.0 9.7 0.00 0.00 0.00 72 1007.5
20260508023539 18 58 0.0 9.7 0.00 0.00 0.00 72 1007.8
20260508023052 19 340 1.6 6.4 0.00 0.00 0.00 72 1007.8
20260508022539 19 60 3.2 6.4 0.00 0.00 0.00 72 1008.0
20260508022039 19 0 0.0 6.4 0.00 0.00 0.00 72 1008.3
20260508021548 19 96 1.6 8.0 0.00 0.00 0.00 72 1008.5
20260508021038 19 54 0.0 11.3 0.00 0.00 0.00 73 1008.8
20260508020538 19 348 3.2 11.3 0.00 0.00 0.00 72 1009.1
20260508020049 19 0 1.6 3.2 0.00 0.00 0.00 73 1009.1
20260508015535 19 213 0.0 4.8 0.00 0.00 0.00 72 1009.0
20260508015038 19 0 0.0 4.8 0.00 0.00 0.00 73 1009.1
20260508014546 19 246 1.6 6.4 0.00 0.00 0.00 73 1009.2
20260508014035 19 265 1.6 6.4 0.00 0.00 0.00 73 1009.4
20260508013535 20 253 1.6 4.8 0.00 0.00 0.00 72 1009.4
20260508013052 20 41 0.0 11.3 0.00 0.00 0.00 72 1009.4
20260508012539 20 231 3.2 11.3 0.00 0.00 0.00 72 1009.6
20260508012037 20 265 1.6 12.9 0.00 0.00 0.00 71 1009.6
20260508011559 20 251 3.2 12.9 0.00 0.00 0.00 72 1009.8
20260508011038 20 259 3.2 12.9 0.00 0.00 0.00 71 1009.8
20260508010535 20 237 3.2 12.9 0.00 0.00 0.00 72 1009.7
20260508010058 20 262 4.8 12.9 0.00 0.00 0.00 72 1009.9
20260508005539 20 277 6.4 12.9 0.00 0.00 0.00 72 1010.0
20260508005038 20 64 3.2 12.9 0.00 0.00 0.00 71 1010.1
20260508004554 20 0 4.8 14.5 0.00 0.00 0.00 70 1010.2
20260508004036 20 298 1.6 14.5 0.00 0.00 0.00 71 1010.3
20260508003538 20 63 4.8 16.1 0.00 0.00 0.00 69 1010.4
20260508003056 20 222 3.2 20.9 0.00 0.00 0.00 69 1010.5
20260508002536 20 298 4.8 20.9 0.00 0.00 0.00 68 1010.7
20260508002039 21 250 4.8 16.1 0.00 0.00 0.00 69 1011.1
20260508001548 21 36 4.8 12.9 0.00 0.00 0.00 69 1011.1
20260508001038 21 275 4.8 12.9 0.00 0.00 0.00 69 1011.2
20260508000538 21 46 4.8 19.3 0.00 0.00 0.00 69 1011.4
20260508000047 21 232 3.2 19.3 0.00 0.00 0.00 70 1011.6
20260507235540 20 33 3.2 19.3 0.00 0.00 0.00 70 1011.6
20260507235035 20 84 3.2 19.3 0.00 0.00 0.00 71 1011.8
20260507234544 20 307 8.0 19.3 0.00 0.00 0.00 69 1011.7
20260507234035 20 202 3.2 14.5 0.00 0.00 0.00 70 1011.6
20260507233539 20 64 3.2 9.7 0.00 0.00 0.00 73 1011.7
20260507233043 20 271 3.2 9.7 0.00 0.00 0.00 72 1011.7
20260507232538 20 242 3.2 14.5 0.00 0.00 0.00 72 1011.8
20260507232039 20 227 3.2 14.5 0.00 0.00 0.00 73 1012.0
20260507231546 20 15 4.8 16.1 0.00 0.00 0.00 72 1012.0
20260507231039 20 238 6.4 17.7 0.00 0.00 0.00 72 1012.0
20260507230539 20 0 3.2 17.7 0.00 0.00 0.00 72 1012.0
20260507230051 20 258 3.2 16.1 0.00 0.00 0.00 72 1012.1
20260507225538 20 38 4.8 16.1 0.00 0.00 0.00 73 1012.2
20260507225039 20 73 6.4 16.1 0.00 0.00 0.00 72 1012.2
20260507224557 20 38 4.8 16.1 0.00 0.00 0.00 73 1012.3
20260507224038 20 265 3.2 11.3 0.00 0.00 0.00 72 1012.2
20260507223539 20 205 3.2 11.3 0.00 0.00 0.00 74 1012.3
20260507223046 20 190 3.2 12.9 0.00 0.00 0.00 74 1012.4
20260507222541 20 90 3.2 12.9 0.00 0.00 0.00 75 1012.4
20260507222039 19 84 1.6 6.4 0.00 0.00 0.00 74 1012.6
20260507221548 19 74 1.6 6.4 0.00 0.00 0.00 73 1012.5
20260507221040 19 85 1.6 4.8 0.00 0.00 0.00 73 1012.6
20260507220538 18 99 1.6 3.2 0.00 0.00 0.00 73 1012.7
20260507220049 18 98 0.0 9.7 0.00 0.00 0.00 75 1012.7
20260507215541 18 0 3.2 9.7 0.00 0.00 0.00 75 1012.8
20260507215038 18 83 1.6 6.4 0.00 0.00 0.00 75 1012.9
20260507214545 18 81 1.6 4.8 0.00 0.00 0.00 74 1013.0
20260507214038 18 81 1.6 9.7 0.00 0.00 0.00 74 1013.1
20260507213538 18 91 1.6 16.1 0.00 0.00 0.00 75 1013.1
20260507213102 18 92 1.6 16.1 0.00 0.00 0.00 76 1013.1
20260507212539 18 98 4.8 9.7 0.00 0.00 0.00 74 1013.2
20260507212040 18 82 3.2 6.4 0.00 0.00 0.00 74 1013.2
20260507211550 18 76 1.6 4.8 0.00 0.00 0.00 75 1013.4
20260507211037 18 0 1.6 6.4 0.00 0.00 0.00 76 1013.2
20260507210537 17 90 3.2 6.4 0.00 0.00 0.00 78 1013.1
20260507210046 17 0 3.2 8.0 0.00 0.00 0.00 79 1013.1
20260507205537 17 96 1.6 8.0 0.00 0.00 0.00 80 1013.2
20260507205037 16 90 0.0 4.8 0.00 0.00 0.00 80 1013.3
20260507204557 16 0 0.0 4.8 0.00 0.00 0.00 80 1013.4
20260507204036 16 99 1.6 4.8 0.00 0.00 0.00 81 1013.2
20260507203540 16 99 0.0 4.8 0.00 0.00 0.00 82 1013.3
20260507203045 16 99 0.0 4.8 0.00 0.00 0.00 82 1013.3
20260507202537 16 109 1.6 4.8 0.00 0.00 0.00 83 1013.3
20260507202039 16 113 1.6 4.8 0.00 0.00 0.00 85 1013.2
20260507201547 15 113 3.2 4.8 0.00 0.00 0.00 86 1013.4
20260507201036 15 103 1.6 3.2 0.00 0.00 0.00 86 1013.3
20260507200536 15 102 1.6 3.2 0.00 0.00 0.00 87 1013.4
20260507200042 15 102 0.0 1.6 0.00 0.00 0.00 87 1013.3
20260507195536 15 0 0.0 1.6 0.00 0.00 0.00 87 1013.3
20260507195040 15 0 0.0 1.6 0.00 0.00 0.00 87 1013.3
20260507194554 15 102 0.0 1.6 0.00 0.00 0.00 87 1013.3
20260507194039 15 102 0.0 1.6 0.00 0.00 0.00 86 1013.3
20260507193542 15 101 0.0 3.2 0.00 0.00 0.00 86 1013.3
20260507193108 15 101 1.6 3.2 0.00 0.00 0.00 87 1013.3
20260507192540 14 101 0.0 3.2 0.00 0.00 0.00 88 1013.2
20260507192040 14 101 1.6 3.2 0.00 0.00 0.00 88 1013.3
20260507191551 13 115 1.6 3.2 0.00 0.00 0.00 88 1013.3
20260507191041 13 115 1.6 3.2 0.00 0.00 0.00 88 1013.3
20260507190539 14 114 1.6 3.2 0.00 0.00 0.00 87 1013.4
20260507185540 14 113 1.6 4.8 0.00 0.00 0.00 87 1013.4
20260507185041 14 113 3.2 4.8 0.00 0.00 0.00 87 1013.3
20260507184548 14 113 3.2 4.8 0.00 0.00 0.00 88 1013.3
20260507184041 14 111 1.6 4.8 0.00 0.00 0.00 87 1013.4
20260507183540 14 110 3.2 4.8 0.00 0.00 0.00 86 1013.4
20260507183058 14 110 1.6 4.8 0.00 0.00 0.00 85 1013.4
20260507182542 15 109 3.2 4.8 0.00 0.00 0.00 85 1013.5
20260507182040 15 99 3.2 4.8 0.00 0.00 0.00 84 1013.4
20260507181550 15 98 1.6 4.8 0.00 0.00 0.00 84 1013.5
20260507181040 15 91 1.6 4.8 0.00 0.00 0.00 85 1013.5
20260507180541 15 91 0.0 1.6 0.00 0.00 0.00 85 1013.6
20260507180052 15 0 0.0 1.6 0.00 0.00 0.00 85 1013.6
20260507175539 15 0 0.0 1.6 0.00 0.00 0.00 85 1013.7
20260507175039 15 0 0.0 1.6 0.00 0.00 0.00 85 1013.6
20260507174551 15 0 0.0 3.2 0.00 0.00 0.00 85 1013.7
20260507174041 15 0 0.0 3.2 0.00 0.00 0.00 86 1013.7
20260507173539 15 0 0.0 1.6 0.00 0.00 0.00 86 1013.7
20260507173057 15 0 0.0 1.6 0.00 0.00 0.00 87 1013.7
20260507172543 15 74 0.0 1.6 0.00 0.00 0.00 87 1013.7
20260507172038 15 0 0.0 1.6 0.00 0.00 0.00 86 1013.7
20260507171555 15 0 0.0 1.6 0.00 0.00 0.00 86 1013.8
20260507171039 15 0 0.0 1.6 0.00 0.00 0.00 86 1013.8
20260507170539 15 0 0.0 0.0 0.00 0.00 0.00 86 1013.9
20260507170054 15 0 0.0 0.0 0.00 0.00 0.00 86 1014.0
20260507165538 15 0 0.0 1.6 0.00 0.00 0.00 86 1014.0
20260507165040 15 0 0.0 3.2 0.00 0.00 0.00 86 1014.1
20260507164554 15 0 0.0 3.2 0.00 0.00 0.00 86 1014.0
20260507164038 15 0 0.0 1.6 0.00 0.00 0.00 86 1014.0
20260507163542 15 0 0.0 1.6 0.00 0.00 0.00 85 1014.0
20260507163051 15 0 0.0 1.6 0.00 0.00 0.00 85 1014.1
20260507162540 15 0 0.0 1.6 0.00 0.00 0.00 85 1014.1
20260507162041 15 0 0.0 3.2 0.00 0.00 0.00 84 1014.3
20260507161548 15 87 0.0 3.2 0.00 0.00 0.00 84 1014.3
20260507161039 15 0 0.0 1.6 0.00 0.00 0.00 84 1014.2
20260507160543 15 0 0.0 1.6 0.00 0.00 0.00 84 1014.3
20260507160058 16 88 0.0 1.6 0.00 0.00 0.00 84 1014.3
20260507155538 16 0 0.0 1.6 0.00 0.00 0.00 84 1014.3
20260507155042 16 0 0.0 4.8 0.00 0.00 0.00 84 1014.3
20260507154554 16 0 0.0 4.8 0.00 0.00 0.00 84 1014.5
20260507154041 16 88 0.0 4.8 0.00 0.00 0.00 84 1014.5
20260507153541 16 90 0.0 3.2 0.00 0.00 0.00 84 1014.6
20260507153052 16 91 1.6 6.4 0.00 0.00 0.00 84 1014.6
20260507152538 16 103 0.0 6.4 0.00 0.00 0.00 84 1014.7
20260507152038 16 62 0.0 6.4 0.00 0.00 0.00 85 1014.6
20260507151549 16 0 0.0 4.8 0.00 0.00 0.00 86 1014.7
20260507151038 15 0 0.0 4.8 0.00 0.00 0.00 87 1014.7
20260507150540 15 0 0.0 1.6 0.00 0.00 0.00 88 1014.8
20260507150052 15 0 0.0 4.8 0.00 0.00 0.00 88 1014.9
20260507145536 15 0 0.0 4.8 0.00 0.00 0.00 89 1014.9
20260507145039 15 0 0.0 1.6 0.00 0.00 0.00 89 1015.0
20260507144551 15 0 0.0 1.6 0.00 0.00 0.00 89 1015.1
20260507144037 15 0 0.0 0.0 0.00 0.00 0.00 89 1015.2
20260507143539 15 0 0.0 1.6 0.00 0.00 0.00 89 1015.2
20260507143049 15 0 0.0 1.6 0.00 0.00 0.00 89 1015.2
20260507142537 15 101 0.0 1.6 0.00 0.00 0.00 89 1015.4
20260507142037 15 0 0.0 3.2 0.00 0.00 0.00 89 1015.4
20260507141551 15 101 0.0 3.2 0.00 0.00 0.00 89 1015.4
20260507141039 15 101 1.6 3.2 0.00 0.00 0.00 88 1015.5
20260507140535 15 101 0.0 1.6 0.00 0.00 0.00 88 1015.5
20260507140106 15 0 0.0 1.6 0.00 0.00 0.00 88 1015.6
20260507135536 15 101 0.0 1.6 0.00 0.00 0.00 88 1015.7
20260507135039 15 101 0.0 1.6 0.00 0.00 0.00 88 1015.8
20260507134548 15 0 0.0 1.6 0.00 0.00 0.00 87 1015.8